Year,Month,Day,Hour,Minute,Value (Times are PST for temperature in C)
2008,05,15,00,00,14.10
2008,05,15,00,01,14.10
2008,05,15,00,02,14.10
2008,05,15,00,03,14.10
2008,05,15,00,04,14.00
2008,05,15,00,05,14.00
2008,05,15,00,06,14.00
2008,05,15,00,07,14.00
2008,05,15,00,08,14.00
2008,05,15,00,09,14.00
2008,05,15,00,10,14.00
2008,05,15,00,11,14.00
2008,05,15,00,12,14.00
2008,05,15,00,13,13.90
2008,05,15,00,14,13.90
2008,05,15,00,15,13.90
2008,05,15,00,16,13.90
2008,05,15,00,17,13.90
2008,05,15,00,18,13.90
2008,05,15,00,19,13.90
2008,05,15,00,20,13.90
2008,05,15,00,21,13.90
2008,05,15,00,22,13.90
2008,05,15,00,23,13.90
2008,05,15,00,24,13.80
2008,05,15,00,25,13.80
2008,05,15,00,26,13.80
2008,05,15,00,27,13.80
2008,05,15,00,28,13.80
2008,05,15,00,29,13.80
2008,05,15,00,30,13.80
2008,05,15,00,31,13.80
2008,05,15,00,32,13.80
2008,05,15,00,33,13.80
2008,05,15,00,34,13.80
2008,05,15,00,35,13.80
2008,05,15,00,36,13.80
2008,05,15,00,37,13.80
2008,05,15,00,38,13.80
2008,05,15,00,39,13.80
2008,05,15,00,40,13.80
2008,05,15,00,41,13.80
2008,05,15,00,42,13.70
2008,05,15,00,43,13.70
2008,05,15,00,44,13.70
2008,05,15,00,45,13.70
2008,05,15,00,46,13.70
2008,05,15,00,47,13.70
2008,05,15,00,48,13.70
2008,05,15,00,49,13.70
2008,05,15,00,50,13.70
2008,05,15,00,51,13.70
2008,05,15,00,52,13.70
2008,05,15,00,53,13.70
2008,05,15,00,54,13.70
2008,05,15,00,55,13.70
2008,05,15,00,56,13.70
2008,05,15,00,57,13.70
2008,05,15,00,58,13.70
2008,05,15,00,59,13.70
2008,05,15,01,00,13.70
2008,05,15,01,01,13.70
2008,05,15,01,02,13.70
2008,05,15,01,03,13.70
2008,05,15,01,04,13.70
2008,05,15,01,05,13.70
2008,05,15,01,06,13.60
2008,05,15,01,07,13.70
2008,05,15,01,09,13.60
2008,05,15,01,10,13.60
2008,05,15,01,11,13.60
2008,05,15,01,12,13.60
2008,05,15,01,14,13.60
2008,05,15,01,15,13.60
2008,05,15,01,16,13.60
2008,05,15,01,17,13.60
2008,05,15,01,18,13.60
2008,05,15,01,19,13.60
2008,05,15,01,20,13.60
2008,05,15,01,21,13.60
2008,05,15,01,22,13.60
2008,05,15,01,23,13.50
2008,05,15,01,24,13.50
2008,05,15,01,25,13.50
2008,05,15,01,26,13.50
2008,05,15,01,27,13.50
2008,05,15,01,28,13.50
2008,05,15,01,29,13.50
2008,05,15,01,30,13.40
2008,05,15,01,31,13.40
2008,05,15,01,32,13.40
2008,05,15,01,33,13.40
2008,05,15,01,34,13.40
2008,05,15,01,35,13.40
2008,05,15,01,36,13.40
2008,05,15,01,37,13.40
2008,05,15,01,38,13.40
2008,05,15,01,39,13.40
2008,05,15,01,40,13.40
2008,05,15,01,41,13.40
2008,05,15,01,42,13.40
2008,05,15,01,43,13.30
2008,05,15,01,44,13.30
2008,05,15,01,45,13.30
2008,05,15,01,46,13.30
2008,05,15,01,47,13.30
2008,05,15,01,48,13.30
2008,05,15,01,49,13.30
2008,05,15,01,50,13.30
2008,05,15,01,51,13.30
2008,05,15,01,52,13.30
2008,05,15,01,53,13.30
2008,05,15,01,54,13.30
2008,05,15,01,55,13.30
2008,05,15,01,56,13.30
2008,05,15,01,57,13.30
2008,05,15,01,58,13.30
2008,05,15,01,59,13.30
2008,05,15,02,00,13.30
2008,05,15,02,01,13.30
2008,05,15,02,02,13.30
2008,05,15,02,03,13.30
2008,05,15,02,04,13.20
2008,05,15,02,05,13.20
2008,05,15,02,06,13.20
2008,05,15,02,07,13.20
2008,05,15,02,08,13.20
2008,05,15,02,09,13.20
2008,05,15,02,10,13.20
2008,05,15,02,11,13.20
2008,05,15,02,12,13.20
2008,05,15,02,13,13.20
2008,05,15,02,14,13.20
2008,05,15,02,15,13.20
2008,05,15,02,16,13.30
2008,05,15,02,17,13.20
2008,05,15,02,18,13.20
2008,05,15,02,19,13.20
2008,05,15,02,20,13.20
2008,05,15,02,21,13.30
2008,05,15,02,22,13.30
2008,05,15,02,23,13.30
2008,05,15,02,24,13.30
2008,05,15,02,25,13.30
2008,05,15,02,26,13.30
2008,05,15,02,27,13.20
2008,05,15,02,28,13.20
2008,05,15,02,29,13.20
2008,05,15,02,30,13.20
2008,05,15,02,31,13.20
2008,05,15,02,32,13.20
2008,05,15,02,33,13.20
2008,05,15,02,34,13.20
2008,05,15,02,35,13.20
2008,05,15,02,36,13.20
2008,05,15,02,37,13.20
2008,05,15,02,38,13.20
2008,05,15,02,39,13.20
2008,05,15,02,40,13.20
2008,05,15,02,41,13.20
2008,05,15,02,42,13.20
2008,05,15,02,43,13.20
2008,05,15,02,44,13.20
2008,05,15,02,45,13.20
2008,05,15,02,46,13.20
2008,05,15,02,47,13.20
2008,05,15,02,48,13.20
2008,05,15,02,49,13.20
2008,05,15,02,50,13.20
2008,05,15,02,51,13.20
2008,05,15,02,52,13.20
2008,05,15,02,53,13.20
2008,05,15,02,54,13.20
2008,05,15,02,55,13.20
2008,05,15,02,56,13.20
2008,05,15,02,57,13.20
2008,05,15,02,58,13.20
2008,05,15,02,59,13.20
2008,05,15,03,00,13.20
2008,05,15,03,01,13.20
2008,05,15,03,02,13.20
2008,05,15,03,03,13.20
2008,05,15,03,04,13.20
2008,05,15,03,05,13.20
2008,05,15,03,06,13.20
2008,05,15,03,07,13.20
2008,05,15,03,08,13.20
2008,05,15,03,10,13.20
2008,05,15,03,11,13.20
2008,05,15,03,12,13.20
2008,05,15,03,13,13.20
2008,05,15,03,14,13.20
2008,05,15,03,15,13.20
2008,05,15,03,16,13.20
2008,05,15,03,17,13.20
2008,05,15,03,18,13.20
2008,05,15,03,19,13.20
2008,05,15,03,20,13.20
2008,05,15,03,21,13.20
2008,05,15,03,22,13.20
2008,05,15,03,23,13.20
2008,05,15,03,24,13.20
2008,05,15,03,25,13.20
2008,05,15,03,26,13.20
2008,05,15,03,27,13.20
2008,05,15,03,28,13.20
2008,05,15,03,29,13.20
2008,05,15,03,30,13.20
2008,05,15,03,31,13.20
2008,05,15,03,32,13.20
2008,05,15,03,33,13.20
2008,05,15,03,34,13.20
2008,05,15,03,35,13.20
2008,05,15,03,36,13.10
2008,05,15,03,37,13.10
2008,05,15,03,38,13.10
2008,05,15,03,39,13.10
2008,05,15,03,40,13.10
2008,05,15,03,41,13.10
2008,05,15,03,42,13.10
2008,05,15,03,43,13.10
2008,05,15,03,44,13.10
2008,05,15,03,45,13.10
2008,05,15,03,46,13.10
2008,05,15,03,47,13.10
2008,05,15,03,48,13.10
2008,05,15,03,49,13.10
2008,05,15,03,50,13.10
2008,05,15,03,51,13.10
2008,05,15,03,52,13.10
2008,05,15,03,53,13.10
2008,05,15,03,54,13.10
2008,05,15,03,55,13.10
2008,05,15,03,56,13.10
2008,05,15,03,57,13.10
2008,05,15,03,58,13.00
2008,05,15,03,59,13.00
2008,05,15,04,00,13.00
2008,05,15,04,01,13.00
2008,05,15,04,02,13.00
2008,05,15,04,03,13.00
2008,05,15,04,04,12.90
2008,05,15,04,05,12.90
2008,05,15,04,06,12.90
2008,05,15,04,07,12.90
2008,05,15,04,08,12.90
2008,05,15,04,09,12.90
2008,05,15,04,10,12.80
2008,05,15,04,11,12.80
2008,05,15,04,12,12.80
2008,05,15,04,13,12.80
2008,05,15,04,14,12.80
2008,05,15,04,15,12.80
2008,05,15,04,16,12.80
2008,05,15,04,17,12.80
2008,05,15,04,18,12.80
2008,05,15,04,19,12.80
2008,05,15,04,20,12.80
2008,05,15,04,21,12.80
2008,05,15,04,22,12.70
2008,05,15,04,23,12.70
2008,05,15,04,24,12.70
2008,05,15,04,25,12.70
2008,05,15,04,26,12.70
2008,05,15,04,27,12.70
2008,05,15,04,28,12.70
2008,05,15,04,29,12.70
2008,05,15,04,30,12.70
2008,05,15,04,31,12.60
2008,05,15,04,32,12.60
2008,05,15,04,33,12.60
2008,05,15,04,34,12.60
2008,05,15,04,35,12.60
2008,05,15,04,36,12.60
2008,05,15,04,37,12.60
2008,05,15,04,38,12.60
2008,05,15,04,39,12.60
2008,05,15,04,40,12.60
2008,05,15,04,41,12.60
2008,05,15,04,42,12.60
2008,05,15,04,43,12.60
2008,05,15,04,44,12.60
2008,05,15,04,45,12.60
2008,05,15,04,46,12.60
2008,05,15,04,47,12.60
2008,05,15,04,48,12.60
2008,05,15,04,49,12.60
2008,05,15,04,50,12.60
2008,05,15,04,51,12.60
2008,05,15,04,52,12.60
2008,05,15,04,53,12.60
2008,05,15,04,54,12.60
2008,05,15,04,55,12.60
2008,05,15,04,56,12.50
2008,05,15,04,57,12.50
2008,05,15,04,58,12.60
2008,05,15,04,59,12.50
2008,05,15,05,00,12.50
2008,05,15,05,01,12.50
2008,05,15,05,02,12.50
2008,05,15,05,03,12.50
2008,05,15,05,04,12.50
2008,05,15,05,05,12.50
2008,05,15,05,06,12.50
2008,05,15,05,07,12.50
2008,05,15,05,08,12.50
2008,05,15,05,09,12.50
2008,05,15,05,10,12.50
2008,05,15,05,11,12.50
2008,05,15,05,12,12.50
2008,05,15,05,13,12.50
2008,05,15,05,14,12.50
2008,05,15,05,15,12.50
2008,05,15,05,16,12.50
2008,05,15,05,17,12.50
2008,05,15,05,18,12.50
2008,05,15,05,19,12.40
2008,05,15,05,20,12.40
2008,05,15,05,21,12.40
2008,05,15,05,22,12.40
2008,05,15,05,23,12.40
2008,05,15,05,24,12.40
2008,05,15,05,25,12.40
2008,05,15,05,26,12.40
2008,05,15,05,27,12.30
2008,05,15,05,28,12.30
2008,05,15,05,29,12.30
2008,05,15,05,30,12.30
2008,05,15,05,31,12.30
2008,05,15,05,32,12.30
2008,05,15,05,33,12.30
2008,05,15,05,34,12.30
2008,05,15,05,35,12.30
2008,05,15,05,36,12.30
2008,05,15,05,37,12.30
2008,05,15,05,38,12.20
2008,05,15,05,39,12.20
2008,05,15,05,40,12.20
2008,05,15,05,41,12.20
2008,05,15,05,42,12.20
2008,05,15,05,43,12.20
2008,05,15,05,44,12.20
2008,05,15,05,45,12.20
2008,05,15,05,46,12.20
2008,05,15,05,47,12.20
2008,05,15,05,48,12.20
2008,05,15,05,49,12.20
2008,05,15,05,50,12.20
2008,05,15,05,51,12.20
2008,05,15,05,52,12.20
2008,05,15,05,53,12.20
2008,05,15,05,54,12.20
2008,05,15,05,55,12.20
2008,05,15,05,56,12.10
2008,05,15,05,57,12.10
2008,05,15,05,58,12.10
2008,05,15,05,59,12.10
2008,05,15,06,00,12.10
2008,05,15,06,01,12.10
2008,05,15,06,02,12.10
2008,05,15,06,03,12.10
2008,05,15,06,04,12.10
2008,05,15,06,05,12.10
2008,05,15,06,06,12.10
2008,05,15,06,07,12.10
2008,05,15,06,08,12.10
2008,05,15,06,09,12.10
2008,05,15,06,10,12.10
2008,05,15,06,11,12.10
2008,05,15,06,12,12.10
2008,05,15,06,13,12.10
2008,05,15,06,14,12.10
2008,05,15,06,15,12.10
2008,05,15,06,16,12.10
2008,05,15,06,17,12.10
2008,05,15,06,18,12.10
2008,05,15,06,19,12.10
2008,05,15,06,20,12.10
2008,05,15,06,21,12.10
2008,05,15,06,22,12.10
2008,05,15,06,23,12.10
2008,05,15,06,24,12.10
2008,05,15,06,25,12.10
2008,05,15,06,26,12.10
2008,05,15,06,27,12.10
2008,05,15,06,28,12.10
2008,05,15,06,29,12.10
2008,05,15,06,30,12.10
2008,05,15,06,31,12.10
2008,05,15,06,32,12.10
2008,05,15,06,33,12.10
2008,05,15,06,34,12.10
2008,05,15,06,35,12.10
2008,05,15,06,36,12.10
2008,05,15,06,37,12.10
2008,05,15,06,38,12.10
2008,05,15,06,39,12.10
2008,05,15,06,40,12.10
2008,05,15,06,41,12.10
2008,05,15,06,42,12.10
2008,05,15,06,43,12.10
2008,05,15,06,44,12.10
2008,05,15,06,45,12.10
2008,05,15,06,46,12.10
2008,05,15,06,47,12.10
2008,05,15,06,48,12.20
2008,05,15,06,49,12.20
2008,05,15,06,50,12.20
2008,05,15,06,51,12.20
2008,05,15,06,52,12.20
2008,05,15,06,53,12.20
2008,05,15,06,54,12.20
2008,05,15,06,55,12.20
2008,05,15,06,56,12.20
2008,05,15,06,57,12.20
2008,05,15,06,58,12.20
2008,05,15,06,59,12.20
2008,05,15,07,00,12.20
2008,05,15,07,01,12.20
2008,05,15,07,02,12.20
2008,05,15,07,03,12.20
2008,05,15,07,04,12.20
2008,05,15,07,05,12.20
2008,05,15,07,06,12.20
2008,05,15,07,07,12.20
2008,05,15,07,08,12.20
2008,05,15,07,09,12.20
2008,05,15,07,10,12.20
2008,05,15,07,11,12.20
2008,05,15,07,12,12.20
2008,05,15,07,13,12.20
2008,05,15,07,14,12.20
2008,05,15,07,15,12.20
2008,05,15,07,16,12.20
2008,05,15,07,17,12.20
2008,05,15,07,18,12.20
2008,05,15,07,19,12.20
2008,05,15,07,20,12.20
2008,05,15,07,21,12.20
2008,05,15,07,22,12.20
2008,05,15,07,23,12.20
2008,05,15,07,24,12.20
2008,05,15,07,25,12.20
2008,05,15,07,26,12.30
2008,05,15,07,27,12.30
2008,05,15,07,28,12.30
2008,05,15,07,29,12.30
2008,05,15,07,30,12.30
2008,05,15,07,31,12.30
2008,05,15,07,32,12.30
2008,05,15,07,33,12.30
2008,05,15,07,34,12.30
2008,05,15,07,35,12.30
2008,05,15,07,36,12.30
2008,05,15,07,37,12.30
2008,05,15,07,38,12.30
2008,05,15,07,39,12.30
2008,05,15,07,40,12.30
2008,05,15,07,41,12.30
2008,05,15,07,42,12.30
2008,05,15,07,43,12.30
2008,05,15,07,44,12.30
2008,05,15,07,45,12.30
2008,05,15,07,46,12.30
2008,05,15,07,47,12.30
2008,05,15,07,48,12.30
2008,05,15,07,49,12.40
2008,05,15,07,50,12.40
2008,05,15,07,51,12.40
2008,05,15,07,52,12.40
2008,05,15,07,53,12.40
2008,05,15,07,54,12.40
2008,05,15,07,55,12.30
2008,05,15,07,56,12.30
2008,05,15,07,57,12.30
2008,05,15,07,58,12.30
2008,05,15,07,59,12.30
2008,05,15,08,00,12.30
2008,05,15,08,01,12.30
2008,05,15,08,02,12.30
2008,05,15,08,03,12.30
2008,05,15,08,04,12.30
2008,05,15,08,05,12.30
2008,05,15,08,06,12.30
2008,05,15,08,07,12.40
2008,05,15,08,08,12.30
2008,05,15,08,09,12.30
2008,05,15,08,10,12.40
2008,05,15,08,11,12.40
2008,05,15,08,12,12.40
2008,05,15,08,13,12.40
2008,05,15,08,14,12.40
2008,05,15,08,15,12.40
2008,05,15,08,16,12.40
2008,05,15,08,17,12.40
2008,05,15,08,18,12.50
2008,05,15,08,19,12.50
2008,05,15,08,20,12.50
2008,05,15,08,21,12.50
2008,05,15,08,22,12.50
2008,05,15,08,23,12.50
2008,05,15,08,24,12.60
2008,05,15,08,25,12.60
2008,05,15,08,26,12.60
2008,05,15,08,27,12.60
2008,05,15,08,28,12.60
2008,05,15,08,29,12.60
2008,05,15,08,30,12.60
2008,05,15,08,31,12.60
2008,05,15,08,32,12.60
2008,05,15,08,33,12.60
2008,05,15,08,34,12.70
2008,05,15,08,35,12.70
2008,05,15,08,36,12.70
2008,05,15,08,37,12.70
2008,05,15,08,38,12.70
2008,05,15,08,39,12.70
2008,05,15,08,40,12.70
2008,05,15,08,41,12.70
2008,05,15,08,42,12.70
2008,05,15,08,43,12.70
2008,05,15,08,44,12.70
2008,05,15,08,45,12.70
2008,05,15,08,46,12.70
2008,05,15,08,47,12.70
2008,05,15,08,48,12.70
2008,05,15,08,49,12.80
2008,05,15,08,50,12.80
2008,05,15,08,51,12.80
2008,05,15,08,52,12.80
2008,05,15,08,53,12.80
2008,05,15,08,54,12.80
2008,05,15,08,55,12.80
2008,05,15,08,56,12.80
2008,05,15,08,57,12.90
2008,05,15,08,58,12.90
2008,05,15,08,59,12.90
2008,05,15,09,00,12.90
2008,05,15,09,01,12.90
2008,05,15,09,02,12.90
2008,05,15,09,03,12.90
2008,05,15,09,04,12.90
2008,05,15,09,05,12.90
2008,05,15,09,06,12.90
2008,05,15,09,07,12.90
2008,05,15,09,08,13.00
2008,05,15,09,09,13.00
2008,05,15,09,10,13.00
2008,05,15,09,11,13.00
2008,05,15,09,12,13.00
2008,05,15,09,13,13.00
2008,05,15,09,14,13.00
2008,05,15,09,15,13.00
2008,05,15,09,16,13.00
2008,05,15,09,17,13.00
2008,05,15,09,18,13.10
2008,05,15,09,19,13.10
2008,05,15,09,20,13.10
2008,05,15,09,21,13.10
2008,05,15,09,22,13.10
2008,05,15,09,23,13.10
2008,05,15,09,24,13.10
2008,05,15,09,25,13.10
2008,05,15,09,26,13.10
2008,05,15,09,27,13.10
2008,05,15,09,28,13.10
2008,05,15,09,29,13.10
2008,05,15,09,30,13.20
2008,05,15,09,31,13.10
2008,05,15,09,32,13.20
2008,05,15,09,33,13.20
2008,05,15,09,34,13.20
2008,05,15,09,35,13.20
2008,05,15,09,36,13.20
2008,05,15,09,37,13.20
2008,05,15,09,38,13.20
2008,05,15,09,39,13.20
2008,05,15,09,40,13.20
2008,05,15,09,41,13.20
2008,05,15,09,42,13.30
2008,05,15,09,43,13.30
2008,05,15,09,44,13.30
2008,05,15,09,45,13.30
2008,05,15,09,46,13.30
2008,05,15,09,47,13.30
2008,05,15,09,48,13.30
2008,05,15,09,49,13.30
2008,05,15,09,50,13.30
2008,05,15,09,51,13.40
2008,05,15,09,52,13.40
2008,05,15,09,53,13.30
2008,05,15,09,54,13.30
2008,05,15,09,55,13.30
2008,05,15,09,56,13.30
2008,05,15,09,57,13.30
2008,05,15,09,58,13.30
2008,05,15,09,59,13.40
2008,05,15,10,00,13.40
2008,05,15,10,01,13.40
2008,05,15,10,02,13.40
2008,05,15,10,03,13.40
2008,05,15,10,04,13.40
2008,05,15,10,05,13.50
2008,05,15,10,06,13.50
2008,05,15,10,07,13.60
2008,05,15,10,08,13.60
2008,05,15,10,09,13.60
2008,05,15,10,10,13.60
2008,05,15,10,11,13.60
2008,05,15,10,12,13.60
2008,05,15,10,13,13.60
2008,05,15,10,14,13.70
2008,05,15,10,15,13.70
2008,05,15,10,16,13.70
2008,05,15,10,17,13.70
2008,05,15,10,18,13.70
2008,05,15,10,19,13.70
2008,05,15,10,20,13.70
2008,05,15,10,21,13.70
2008,05,15,10,22,13.70
2008,05,15,10,23,13.80
2008,05,15,10,24,13.80
2008,05,15,10,25,13.80
2008,05,15,10,26,13.80
2008,05,15,10,27,13.80
2008,05,15,10,28,13.80
2008,05,15,10,29,13.80
2008,05,15,10,30,13.80
2008,05,15,10,31,13.80
2008,05,15,10,32,13.80
2008,05,15,10,33,13.80
2008,05,15,10,34,13.80
2008,05,15,10,35,13.90
2008,05,15,10,36,13.90
2008,05,15,10,37,13.90
2008,05,15,10,38,13.90
2008,05,15,10,39,14.00
2008,05,15,10,40,14.00
2008,05,15,10,41,14.10
2008,05,15,10,42,14.10
2008,05,15,10,43,14.10
2008,05,15,10,44,14.10
2008,05,15,10,45,14.20
2008,05,15,10,46,14.20
2008,05,15,10,47,14.20
2008,05,15,10,48,14.20
2008,05,15,10,49,14.20
2008,05,15,10,50,14.20
2008,05,15,10,51,14.20
2008,05,15,10,52,14.20
2008,05,15,10,53,14.20
2008,05,15,10,54,14.20
2008,05,15,10,55,14.30
2008,05,15,10,56,14.30
2008,05,15,10,57,14.30
2008,05,15,10,58,14.30
2008,05,15,10,59,14.40
2008,05,15,11,00,14.40
2008,05,15,11,01,14.40
2008,05,15,11,02,14.50
2008,05,15,11,03,14.50
2008,05,15,11,04,14.60
2008,05,15,11,05,14.60
2008,05,15,11,06,14.60
2008,05,15,11,07,14.70
2008,05,15,11,08,14.70
2008,05,15,11,09,14.70
2008,05,15,11,10,14.80
2008,05,15,11,11,14.80
2008,05,15,11,12,14.90
2008,05,15,11,13,15.00
2008,05,15,11,14,15.00
2008,05,15,11,15,15.00
2008,05,15,11,16,15.00
2008,05,15,11,17,15.10
2008,05,15,11,18,15.20
2008,05,15,11,19,15.30
2008,05,15,11,20,15.30
2008,05,15,11,21,15.40
2008,05,15,11,22,15.50
2008,05,15,11,23,15.60
2008,05,15,11,24,15.60
2008,05,15,11,25,15.70
2008,05,15,11,26,15.80
2008,05,15,11,27,15.80
2008,05,15,11,28,15.80
2008,05,15,11,29,15.90
2008,05,15,11,30,15.90
2008,05,15,11,31,15.90
2008,05,15,11,32,15.90
2008,05,15,11,33,15.90
2008,05,15,11,34,15.90
2008,05,15,11,35,15.90
2008,05,15,11,36,16.00
2008,05,15,11,37,16.10
2008,05,15,11,38,16.10
2008,05,15,11,39,16.20
2008,05,15,11,40,16.20
2008,05,15,11,41,16.30
2008,05,15,11,42,16.30
2008,05,15,11,43,16.40
2008,05,15,11,44,16.40
2008,05,15,11,45,16.50
2008,05,15,11,46,16.50
2008,05,15,11,47,16.60
2008,05,15,11,48,16.60
2008,05,15,11,49,16.70
2008,05,15,11,50,16.70
2008,05,15,11,51,16.80
2008,05,15,11,52,16.90
2008,05,15,11,53,16.90
2008,05,15,11,54,17.00
2008,05,15,11,55,17.10
2008,05,15,11,56,17.10
2008,05,15,11,57,17.10
2008,05,15,11,58,17.00
2008,05,15,11,59,16.90
2008,05,15,12,00,16.90
2008,05,15,12,01,16.90
2008,05,15,12,02,16.90
2008,05,15,12,03,16.90
2008,05,15,12,04,16.90
2008,05,15,12,05,16.90
2008,05,15,12,06,16.90
2008,05,15,12,07,16.90
2008,05,15,12,08,17.00
2008,05,15,12,09,17.00
2008,05,15,12,10,17.10
2008,05,15,12,11,17.10
2008,05,15,12,12,17.10
2008,05,15,12,13,17.10
2008,05,15,12,14,17.10
2008,05,15,12,15,17.10
2008,05,15,12,16,17.10
2008,05,15,12,17,17.10
2008,05,15,12,18,17.10
2008,05,15,12,19,17.20
2008,05,15,12,20,17.30
2008,05,15,12,21,17.30
2008,05,15,12,22,17.40
2008,05,15,12,23,17.40
2008,05,15,12,24,17.60
2008,05,15,12,25,17.60
2008,05,15,12,26,17.70
2008,05,15,12,27,17.70
2008,05,15,12,28,17.80
2008,05,15,12,29,17.80
2008,05,15,12,30,17.80
2008,05,15,12,31,17.90
2008,05,15,12,32,17.90
2008,05,15,12,34,18.00
2008,05,15,12,35,18.10
2008,05,15,12,36,18.10
2008,05,15,12,37,18.20
2008,05,15,12,38,18.20
2008,05,15,12,39,18.20
2008,05,15,12,40,18.20
2008,05,15,12,41,18.30
2008,05,15,12,42,18.30
2008,05,15,12,43,18.30
2008,05,15,12,44,18.30
2008,05,15,12,45,18.30
2008,05,15,12,46,18.40
2008,05,15,12,47,18.40
2008,05,15,12,48,18.40
2008,05,15,12,49,18.40
2008,05,15,12,50,18.40
2008,05,15,12,51,18.40
2008,05,15,12,52,18.50
2008,05,15,12,53,18.60
2008,05,15,12,54,18.60
2008,05,15,12,55,18.70
2008,05,15,12,56,18.70
2008,05,15,12,57,18.80
2008,05,15,12,58,18.80
2008,05,15,12,59,18.80
2008,05,15,13,00,18.80
2008,05,15,13,01,18.80
2008,05,15,13,02,18.80
2008,05,15,13,03,18.80
2008,05,15,13,04,18.80
2008,05,15,13,05,18.80
2008,05,15,13,06,18.70
2008,05,15,13,07,18.60
2008,05,15,13,08,18.60
2008,05,15,13,09,18.60
2008,05,15,13,10,18.60
2008,05,15,13,11,18.60
2008,05,15,13,12,18.60
2008,05,15,13,13,18.70
2008,05,15,13,15,18.70
2008,05,15,13,16,18.70
2008,05,15,13,17,18.70
2008,05,15,13,18,18.80
2008,05,15,13,19,18.80
2008,05,15,13,20,18.90
2008,05,15,13,21,18.90
2008,05,15,13,22,18.90
2008,05,15,13,23,19.00
2008,05,15,13,24,19.10
2008,05,15,13,25,19.10
2008,05,15,13,26,19.20
2008,05,15,13,27,19.30
2008,05,15,13,28,19.30
2008,05,15,13,29,19.30
2008,05,15,13,30,19.40
2008,05,15,13,31,19.40
2008,05,15,13,32,19.40
2008,05,15,13,33,19.40
2008,05,15,13,34,19.40
2008,05,15,13,35,19.30
2008,05,15,13,36,19.20
2008,05,15,13,37,19.20
2008,05,15,13,38,19.20
2008,05,15,13,39,19.20
2008,05,15,13,40,19.20
2008,05,15,13,41,19.20
2008,05,15,13,42,19.20
2008,05,15,13,43,19.20
2008,05,15,13,44,19.30
2008,05,15,13,45,19.30
2008,05,15,13,46,19.40
2008,05,15,13,47,19.40
2008,05,15,13,48,19.50
2008,05,15,13,49,19.50
2008,05,15,13,50,19.60
2008,05,15,13,51,19.60
2008,05,15,13,52,19.70
2008,05,15,13,53,19.70
2008,05,15,13,54,19.70
2008,05,15,13,55,19.80
2008,05,15,13,56,19.80
2008,05,15,13,57,19.90
2008,05,15,13,58,19.90
2008,05,15,13,59,19.90
2008,05,15,14,00,20.00
2008,05,15,14,01,20.10
2008,05,15,14,02,20.10
2008,05,15,14,03,20.20
2008,05,15,14,04,20.20
2008,05,15,14,05,20.20
2008,05,15,14,06,20.20
2008,05,15,14,07,20.20
2008,05,15,14,08,20.20
2008,05,15,14,09,20.30
2008,05,15,14,10,20.30
2008,05,15,14,11,20.30
2008,05,15,14,12,20.40
2008,05,15,14,13,20.40
2008,05,15,14,14,20.50
2008,05,15,14,15,20.60
2008,05,15,14,16,20.60
2008,05,15,14,17,20.70
2008,05,15,14,18,20.70
2008,05,15,14,19,20.80
2008,05,15,14,20,20.80
2008,05,15,14,21,20.80
2008,05,15,14,22,20.90
2008,05,15,14,23,20.90
2008,05,15,14,24,20.90
2008,05,15,14,25,21.10
2008,05,15,14,26,21.10
2008,05,15,14,27,21.20
2008,05,15,14,28,21.20
2008,05,15,14,29,21.20
2008,05,15,14,30,21.30
2008,05,15,14,31,21.30
2008,05,15,14,32,21.30
2008,05,15,14,33,21.30
2008,05,15,14,34,21.40
2008,05,15,14,35,21.40
2008,05,15,14,36,21.40
2008,05,15,14,37,21.60
2008,05,15,14,38,21.60
2008,05,15,14,39,21.70
2008,05,15,14,40,21.70
2008,05,15,14,41,21.70
2008,05,15,14,42,21.70
2008,05,15,14,43,21.60
2008,05,15,14,44,21.60
2008,05,15,14,45,21.60
2008,05,15,14,46,21.60
2008,05,15,14,47,21.50
2008,05,15,14,48,21.50
2008,05,15,14,49,21.40
2008,05,15,14,50,21.40
2008,05,15,14,51,21.40
2008,05,15,14,52,21.40
2008,05,15,14,53,21.50
2008,05,15,14,54,21.50
2008,05,15,14,55,21.60
2008,05,15,14,56,21.60
2008,05,15,14,57,21.60
2008,05,15,14,58,21.60
2008,05,15,14,59,21.60
2008,05,15,15,00,21.60
2008,05,15,15,01,21.60
2008,05,15,15,02,21.60
2008,05,15,15,03,21.60
2008,05,15,15,04,21.70
2008,05,15,15,05,21.80
2008,05,15,15,06,21.80
2008,05,15,15,07,21.90
2008,05,15,15,08,22.00
2008,05,15,15,09,22.10
2008,05,15,15,10,22.10
2008,05,15,15,11,22.10
2008,05,15,15,12,22.20
2008,05,15,15,13,22.20
2008,05,15,15,14,22.30
2008,05,15,15,15,22.30
2008,05,15,15,16,22.40
2008,05,15,15,17,22.60
2008,05,15,15,18,22.70
2008,05,15,15,19,22.80
2008,05,15,15,20,22.80
2008,05,15,15,21,22.90
2008,05,15,15,22,23.00
2008,05,15,15,23,23.00
2008,05,15,15,24,23.00
2008,05,15,15,25,23.10
2008,05,15,15,26,23.10
2008,05,15,15,27,23.10
2008,05,15,15,28,23.10
2008,05,15,15,29,23.20
2008,05,15,15,30,23.20
2008,05,15,15,31,23.30
2008,05,15,15,32,23.30
2008,05,15,15,33,23.40
2008,05,15,15,34,23.40
2008,05,15,15,35,23.40
2008,05,15,15,36,23.40
2008,05,15,15,37,23.50
2008,05,15,15,38,23.60
2008,05,15,15,39,23.60
2008,05,15,15,40,23.60
2008,05,15,15,41,23.70
2008,05,15,15,42,23.80
2008,05,15,15,43,23.80
2008,05,15,15,44,23.90
2008,05,15,15,45,24.00
2008,05,15,15,46,24.10
2008,05,15,15,47,24.10
2008,05,15,15,48,24.10
2008,05,15,15,49,24.20
2008,05,15,15,50,24.20
2008,05,15,15,51,24.30
2008,05,15,15,52,24.30
2008,05,15,15,53,24.40
2008,05,15,15,54,24.50
2008,05,15,15,55,24.60
2008,05,15,15,56,24.70
2008,05,15,15,57,24.70
2008,05,15,15,58,24.70
2008,05,15,15,59,24.60
2008,05,15,16,00,24.60
2008,05,15,16,01,24.50
2008,05,15,16,02,24.50
2008,05,15,16,03,24.60
2008,05,15,16,04,24.60
2008,05,15,16,05,24.60
2008,05,15,16,06,24.60
2008,05,15,16,07,24.60
2008,05,15,16,08,24.70
2008,05,15,16,09,24.70
2008,05,15,16,10,24.70
2008,05,15,16,11,24.80
2008,05,15,16,12,24.80
2008,05,15,16,13,24.80
2008,05,15,16,14,24.80
2008,05,15,16,15,24.70
2008,05,15,16,16,24.70
2008,05,15,16,17,24.70
2008,05,15,16,18,24.70
2008,05,15,16,19,24.70
2008,05,15,16,20,24.70
2008,05,15,16,21,24.60
2008,05,15,16,22,24.50
2008,05,15,16,23,24.40
2008,05,15,16,24,24.40
2008,05,15,16,25,24.30
2008,05,15,16,26,24.20
2008,05,15,16,27,24.20
2008,05,15,16,28,24.20
2008,05,15,16,29,24.20
2008,05,15,16,30,24.30
2008,05,15,16,31,24.30
2008,05,15,16,32,24.30
2008,05,15,16,33,24.40
2008,05,15,16,34,24.40
2008,05,15,16,35,24.40
2008,05,15,16,36,24.50
2008,05,15,16,37,24.60
2008,05,15,16,38,24.60
2008,05,15,16,39,24.70
2008,05,15,16,40,24.70
2008,05,15,16,41,24.70
2008,05,15,16,42,24.80
2008,05,15,16,43,24.80
2008,05,15,16,44,24.80
2008,05,15,16,45,24.80
2008,05,15,16,46,24.80
2008,05,15,16,47,24.90
2008,05,15,16,48,24.90
2008,05,15,16,49,24.90
2008,05,15,16,50,25.00
2008,05,15,16,51,25.10
2008,05,15,16,52,25.10
2008,05,15,16,53,25.10
2008,05,15,16,54,25.10
2008,05,15,16,55,25.10
2008,05,15,16,56,25.10
2008,05,15,16,57,25.20
2008,05,15,16,58,25.20
2008,05,15,16,59,25.20
2008,05,15,17,00,25.30
2008,05,15,17,01,25.30
2008,05,15,17,02,25.30
2008,05,15,17,03,25.30
2008,05,15,17,04,25.40
2008,05,15,17,05,25.40
2008,05,15,17,06,25.40
2008,05,15,17,07,25.40
2008,05,15,17,08,25.40
2008,05,15,17,09,25.50
2008,05,15,17,10,25.50
2008,05,15,17,11,25.50
2008,05,15,17,12,25.50
2008,05,15,17,13,25.60
2008,05,15,17,14,25.60
2008,05,15,17,15,25.50
2008,05,15,17,16,25.60
2008,05,15,17,17,25.50
2008,05,15,17,18,25.60
2008,05,15,17,19,25.60
2008,05,15,17,20,25.60
2008,05,15,17,21,25.70
2008,05,15,17,22,25.70
2008,05,15,17,23,25.80
2008,05,15,17,24,25.80